Weather History for Rock Springs, WY

Change the Weather History Date:

Thursday, January 24, 2013

  Actual Average Record
Temperature  
Mean Temperature 30 °F 21 °F  
Max Temperature 39 °F 30 °F 51 °F (1959)
Min Temperature 20 °F 12 °F -19 °F (1949)
Degree Days  
Heating Degree Days 35 44  
Month to date heating degree days 1175 1051  
Since 1 July heating degree days 4099 4403  
Cooling Degree Days 0 0  
Month to date cooling degree days 0 0  
Year to date cooling degree days 0 0  
Moisture  
Dew Point 25 °F    
Average Humidity 68    
Maximum Humidity 92    
Minimum Humidity 43    
Precipitation  
Precipitation T in 0.01 in 0.12 in (1958)
Month to date precipitation T 0.34  
Year to date precipitation T 0.34  
Sea Level Pressure  
Sea Level Pressure 30.24 in    
Wind  
Wind Speed 10 mph (SW)    
Max Wind Speed 32 mph    
Max Gust Speed 37 mph    
Visibility 10 miles    
Events      
T = Trace of Precipitation, MM = Missing Value Source: NWS Daily Summary

Daily Weather History Graph

Daily Weather History Graph

Search for Another Location

Airport:

Trip Planner

Search our weather history database for the weather conditions in past years. The results will help you decide how hot, cold, wet, or windy it might be!

Date:

Astronomy

Jan. 24, 2013 Rise Set
Actual Time 7:34 AM MST 5:22 PM MST
Civil Twilight 7:04 AM MST 5:52 PM MST
Nautical Twilight 6:31 AM MST 6:25 PM MST
Astronomical Twilight 5:58 AM MST 6:58 PM MST
Moon 3:26 PM MST (1/24) 5:35 AM MST (1/24)
Length of Visible Light 10h 47m
Length of Day
9h 47m
Waxing Gibbous, 95% of the Moon is Illuminated
Jan 24
Waxing Gibbous
Jan 26
Full
Feb 3
Last Quarter
Feb 10
New
Feb 17
First Quarter

Hourly Weather History & Observations

Time (MST) Temp. Windchill Dew Point Humidity Pressure Visibility Wind Dir Wind Speed Gust Speed Precip Events Conditions
12:54 AM 28.0 °F 22.8 °F 12.0 °F 51% 30.25 in 10.0 mi SSW 4.6 mph - N/A   Clear
1:54 AM 26.1 °F - 14.0 °F 60% 30.24 in 10.0 mi Calm Calm - N/A   Clear
2:54 AM 28.0 °F 24.2 °F 12.9 °F 53% 30.24 in 10.0 mi SSW 3.5 mph - N/A   Partly Cloudy
3:54 AM 25.0 °F 14.8 °F 15.1 °F 66% 30.24 in 10.0 mi SSW 10.4 mph - N/A   Mostly Cloudy
4:54 AM 19.9 °F - 12.9 °F 74% 30.27 in 10.0 mi Calm Calm - N/A   Overcast
5:54 AM 25.0 °F 15.5 °F 15.1 °F 66% 30.27 in 10.0 mi SSW 9.2 mph - N/A   Partly Cloudy
6:54 AM 28.9 °F 20.4 °F 15.1 °F 56% 30.25 in 10.0 mi WSW 9.2 mph - N/A   Mostly Cloudy
7:54 AM 30.0 °F 22.4 °F 15.1 °F 54% 30.25 in 10.0 mi SW 8.1 mph - N/A   Clear
8:54 AM 30.9 °F 22.8 °F 17.1 °F 57% 30.25 in 10.0 mi SW 9.2 mph - N/A   Overcast
9:54 AM 34.0 °F 26.0 °F 19.9 °F 56% 30.25 in 10.0 mi SW 10.4 mph - N/A   Scattered Clouds
10:54 AM 37.0 °F 29.3 °F 23.0 °F 57% 30.23 in 10.0 mi SW 11.5 mph - N/A   Overcast
11:54 AM 37.9 °F 30.0 °F 27.0 °F 65% 30.20 in 10.0 mi SW 12.7 mph - N/A   Overcast
12:54 PM 37.9 °F 29.2 °F 28.9 °F 70% 30.21 in 10.0 mi WSW 15.0 mph - N/A   Overcast
1:54 PM 37.0 °F 28.1 °F 30.0 °F 76% 30.21 in 10.0 mi WSW 15.0 mph - 0.00 in   Overcast
2:12 PM 35.6 °F 27.5 °F 30.2 °F 81% 30.16 in 8.0 mi SW 11.5 mph - 0.00 in   Overcast
2:23 PM 35.6 °F 27.5 °F 30.2 °F 81% 30.17 in 6.0 mi SW 11.5 mph - 0.00 in   Overcast
2:51 PM 35.6 °F 27.5 °F 32.0 °F 87% 30.17 in 10.0 mi SW 11.5 mph - 0.00 in   Overcast
2:54 PM 36.0 °F 27.1 °F 32.0 °F 86% 30.22 in 10.0 mi SW 13.8 mph - 0.00 in   Overcast
3:54 PM 36.0 °F 30.3 °F 33.1 °F 89% 30.25 in 10.0 mi SSW 6.9 mph - 0.00 in   Overcast
4:22 PM 37.4 °F 32.1 °F 32.0 °F 81% 30.18 in 10.0 mi SSW 6.9 mph - N/A   Overcast
4:37 PM 37.4 °F 34.9 °F 32.0 °F 81% 30.19 in 10.0 mi SSE 3.5 mph - N/A   Overcast
4:54 PM 36.0 °F 32.1 °F 30.9 °F 82% 30.30 in 10.0 mi South 4.6 mph - N/A   Overcast
5:54 PM 37.0 °F 31.6 °F 30.9 °F 79% 30.28 in 10.0 mi Variable 6.9 mph - N/A   Overcast
6:54 PM 36.0 °F 23.2 °F 30.0 °F 79% 30.23 in 10.0 mi West 28.8 mph 36.8 mph N/A   Clear
7:54 PM 36.0 °F 27.1 °F 30.0 °F 79% 30.29 in 10.0 mi West 13.8 mph - N/A   Mostly Cloudy
8:54 PM 34.0 °F 26.6 °F 30.0 °F 85% 30.29 in 10.0 mi South 9.2 mph - N/A   Overcast
9:54 PM 34.0 °F 26.0 °F 28.9 °F 82% 30.28 in 10.0 mi WSW 10.4 mph - N/A   Mostly Cloudy
10:54 PM 28.9 °F 21.1 °F 27.0 °F 92% 30.30 in 10.0 mi SW 8.1 mph - N/A   Clear
11:54 PM 28.9 °F 19.2 °F 27.0 °F 92% 30.30 in 10.0 mi SSW 11.5 mph - N/A   Clear